This is the latest recevied weather packets stored in our database for station/object N1TKS. If no packets are shown the sender has not sent any weather packets the latest 10 day(s).
| Time | Temp. | Humidity | Pressure | Rain* | Wind** | Luminosity | Snow |
|---|---|---|---|---|---|---|---|
| 1778120517 | 15° C | 89% | 1008.7 hPa | 3.05 mm | - | - | - |
| 1778120258 | 15.56° C | 89% | 1008.8 hPa | 2.79 mm | - | - | - |
| 1778120215 | 15.56° C | 89% | 1008.8 hPa | 2.79 mm | - | - | - |
| 1778119922 | 15.56° C | 89% | 1008.7 hPa | 2.03 mm | - | - | - |
| 1778119614 | 15° C | 89% | 1008.6 hPa | 0.76 mm | - | - | - |
| 1778119313 | 15° C | 89% | 1008.5 hPa | 0.25 mm | - | - | - |
| 1778119058 | 15° C | 89% | 1008.1 hPa | 0.25 mm | - | - | - |
| 1778119014 | 15° C | 89% | 1008.1 hPa | 0.25 mm | - | - | - |
| 1778118890 | 15° C | 89% | 1008.2 hPa | 0 mm | - | - | - |
| 1778118715 | 15° C | 89% | 1008.1 hPa | 0.25 mm | - | - | - |
| 1778118413 | 15° C | 89% | 1008.2 hPa | 0 mm | - | - | - |
| 1778118113 | 15° C | 89% | 1008.2 hPa | 0 mm | - | - | - |
| 1778117515 | 15° C | 89% | 1008.2 hPa | 0 mm | - | - | - |
| 1778117214 | 15° C | 89% | 1008.2 hPa | 0 mm | - | - | - |
| 1778116918 | 15° C | 89% | 1008.1 hPa | 0 mm | - | - | - |
| 1778116615 | 15° C | 89% | 1008.1 hPa | 0 mm | - | - | - |
| 1778116014 | 15° C | 89% | 1008.2 hPa | 0 mm | - | - | - |
| 1778115713 | 15° C | 89% | 1008.1 hPa | 0 mm | - | - | - |
| 1778115415 | 15° C | 89% | 1008 hPa | 0 mm | - | - | - |
| 1778114854 | 15° C | 89% | 1008.2 hPa | 0 mm | - | - | - |
| 1778114813 | 15° C | 89% | 1008.2 hPa | 0 mm | - | - | - |
| 1778113931 | 15° C | 89% | 1007.9 hPa | 0 mm | - | - | - |
| 1778113915 | 15° C | 89% | 1008 hPa | 0 mm | - | - | - |
| 1778113615 | 15° C | 89% | 1008 hPa | 0 mm | - | - | - |
| 1778113314 | 15° C | 89% | 1007.9 hPa | 0 mm | - | - | - |
* Rain latest hour (hover to see other rain measurements)
** Current wind speed in m/s (hover to see current wind gust speed)